Tracking 29892 objects as of 21-Nov-2024
HD Live streaming from Space Station
objects crossing your sky now

OBJECT A

Track OBJECT A now!
10-day predictions


NORAD ID: 52153
Int'l Code: 2022-032A
Perigee: 584.7 km
Apogee: 597.9 km
Inclination: 97.7 °
Period: 96.4 minutes
Semi major axis: 6962 km
RCS: Unknown
Launch date: March 30, 2022
Source: People's Republic of China (PRC)
Launch site: Jiuquan Satellite Launch Center, China (JSC)

Note: This is a ROCKET BODY
Your satellite tracking list
Your tracking list is empty




NASA's NSSDC Master Catalog

Two Line Element Set (TLE):
1 52153U 22032A   24326.14485594  .00003861  00000-0  36318-3 0  9994
2 52153  97.6646   7.8384 0009450 304.1755  55.8569 14.94426274144166
Source of the keplerian elements: AFSPC